This demonstration page uses our WeatherBlox Daily Observations layout. Learn more.

Left ArrowRight Arrow

Hourly Observations for May 12, 2021

Temp ( °F °C ) Dew Point ( °F °C ) Humidity (%) Winds ( mph kmh ) Pressure ( in mb ) Visibility ( mi km ) Precip ( " mm )
12:11 am 00:11 Mostly Cloudy 58 14.4 49 9.4 72 72 ENE 17 28 30.09 1019 10 16 0.00 0.00
12:53 am 00:53 Cloudy 58 14.4 49 9.4 72 72 ENE 17 28 30.07 1018 10 16 0.00 0.00
1:53 am 01:53 Cloudy 56 13.3 49 9.4 77 77 NE 21 33 30.10 1019 10 16 0.00 0.00
2:16 am 02:16 Cloudy 56 13.3 49 9.4 77 77 ENE 20 31 30.16 1021 10 16 0.00 0.00
2:27 am 02:27 Cloudy 55 12.8 49 9.4 80 80 NE 22 35 30.16 1021 10 16 0.00 0.00
2:53 am 02:53 Cloudy 55 12.8 48 8.9 77 77 ENE 22 35 30.10 1019 10 16 0.00 0.00
3:28 am 03:28 Cloudy 55 12.8 47 8.3 74 74 ENE 14 22 30.16 1021 10 16 0.00 0.00
3:53 am 03:53 Cloudy 55 12.8 47 8.3 74 74 ENE 21 33 30.11 1020 10 16 0.00 0.00
4:53 am 04:53 Cloudy 53 11.7 48 8.9 83 83 ENE 21 33 30.14 1021 7 11 0.00 0.00
5:06 am 05:06 Cloudy 53 11.7 46 7.8 77 77 ENE 18 30 30.20 1023 10 16 0.00 0.00
5:53 am 05:53 Cloudy 54 12.2 45 7.2 72 72 ENE 15 24 30.15 1021 10 16 0.00 0.00
6:53 am 06:53 Cloudy 53 11.7 44 6.7 72 72 ENE 21 33 30.16 1022 10 16 0.00 0.00
7:53 am 07:53 Cloudy 53 11.7 44 6.7 72 72 NE 22 35 30.19 1022 10 16 0.00 0.00
8:03 am 08:03 Cloudy 53 11.7 44 6.7 72 72 NNE 21 33 30.22 1024 10 16 0.00 0.00
8:53 am 08:53 Cloudy 54 12.2 44 6.7 69 69 E 10 17 30.22 1023 10 16 0.00 0.00
9:26 am 09:26 Cloudy 54 12.2 44 6.7 69 69 E 8 13 30.28 1025 10 16 0.00 0.00
9:53 am 09:53 Cloudy 54 12.2 44 6.7 69 69 ENE 6 9 30.26 1025 10 16 0.00 0.00
10:53 am 10:53 Cloudy 56 13.3 45 7.2 67 67 ENE 5 7 30.26 1025 10 16 0.00 0.00
11:53 am 11:53 Cloudy 58 14.4 44 6.7 60 60 Calm 30.27 1025 10 16 0.00 0.00
12:14 pm 12:14 Cloudy 60 15.6 44 6.7 56 56 E 5 7 30.26 1025 10 16 0.00 0.00
12:53 pm 12:53 Cloudy 62 16.7 44 6.7 52 52 ENE 10 17 30.25 1025 10 16 0.00 0.00
1:53 pm 13:53 Cloudy 64 17.8 44 6.7 48 48 VRB 3 6 30.23 1024 10 16 0.00 0.00
2:53 pm 14:53 Mostly Sunny 67 19.4 44 6.7 44 44 E 3 6 30.20 1023 10 16 0.00 0.00
3:53 pm 15:53 Partly Cloudy 71 21.7 45 7.2 39 39 NNE 9 15 30.16 1022 10 16 0.00 0.00
4:53 pm 16:53 Partly Cloudy 71 21.7 45 7.2 39 39 Calm 30.13 1020 10 16 0.00 0.00
5:53 pm 17:53 Mostly Cloudy 72 22.2 45 7.2 38 38 ESE 8 13 30.11 1020 10 16 0.00 0.00
6:53 pm 18:53 Sunny 74 23.3 46 7.8 37 37 E 6 9 30.09 1019 10 16 0.00 0.00
7:53 pm 19:53 Sunny 73 22.8 45 7.2 37 37 E 7 11 30.10 1019 10 16 0.00 0.00
8:53 pm 20:53 Clear 70 21.1 45 7.2 41 41 SE 8 13 30.13 1020 10 16 0.00 0.00
9:53 pm 21:53 Clear 68 20 45 7.2 44 44 ESE 13 20 30.15 1021 10 16 0.00 0.00
10:53 pm 22:53 Clear 66 18.9 46 7.8 49 49 E 12 19 30.16 1022 10 16 0.00 0.00
11:53 pm 23:53 Clear 63 17.2 47 8.3 56 56 ESE 10 17 30.17 1022 10 16 0.00 0.00

Powered by AerisWeather